This demonstration page uses our WeatherBlox Daily Observations layout. Learn more.

Left ArrowRight Arrow

41.86663, -103.66717

Hourly Observations for September 27, 2021

Temp ( °F °C ) Dew Point ( °F °C ) Humidity (%) Winds ( mph kmh ) Pressure ( in mb ) Visibility ( mi km ) Precip ( " mm )
12:53 am 00:53 Clear 52 11.1 41 5 66 66 NNW 3 6 29.81 1010 10 16 N/A
1:53 am 01:53 Clear 52 11.1 38 3.3 59 59 NNE 8 13 29.80 1009 10 16 N/A
2:53 am 02:53 Clear 48 8.9 37 2.8 66 66 undefined N/A 29.80 1009 10 16 N/A
3:53 am 03:53 Clear 46 7.8 37 2.8 71 71 NNW 7 11 29.82 1010 10 16 N/A
4:53 am 04:53 Clear 45 7.2 37 2.8 74 74 W 6 9 29.83 1010 10 16 N/A
5:53 am 05:53 Clear 45 7.2 36 2.2 71 71 NNW 3 6 29.83 1010 10 16 N/A
6:53 am 06:53 Sunny 45 7.2 37 2.8 74 74 NNW 5 7 29.86 1011 10 16 N/A
7:53 am 07:53 Sunny 50 10 38 3.3 63 63 NW 5 7 29.88 1012 10 16 N/A
8:53 am 08:53 Sunny 59 15 40 4.4 49 49 W 5 7 29.88 1012 10 16 N/A
9:53 am 09:53 Sunny 68 20 37 2.8 32 32 WNW 3 6 29.87 1012 10 16 N/A
10:53 am 10:53 Sunny 77 25 36 2.2 23 23 NW 8 13 29.85 1011 10 16 N/A
11:53 am 11:53 Sunny 84 28.9 32 undefined 15 15 WNW 8 13 29.83 1010 10 16 N/A
12:53 pm 12:53 Sunny 88 31.1 31 -0.6 13 13 W 7 11 29.81 1010 10 16 N/A
1:53 pm 13:53 Sunny 91 32.8 30 -1.1 11 11 W 5 7 29.77 1008 10 16 N/A
2:53 pm 14:53 Sunny 92 33.3 25 -3.9 9 9 N N/A 29.76 1008 10 16 N/A
3:53 pm 15:53 Sunny 94 34.4 28 -2.2 9 9 N N/A 29.75 1007 10 16 N/A
4:53 pm 16:53 Sunny 93 33.9 28 -2.2 10 10 NE 3 6 29.75 1007 10 16 N/A
5:53 pm 17:53 Sunny 88 31.1 36 2.2 16 16 ENE 6 9 29.75 1008 10 16 N/A
6:53 pm 18:53 Clear 74 23.3 41 5 31 31 ENE 5 7 29.78 1008 10 16 N/A
7:53 pm 19:53 Clear 68 20 38 3.3 33 33 E 8 13 29.79 1009 10 16 N/A
8:53 pm 20:53 Clear 65 18.3 39 3.9 39 39 E 5 7 29.79 1009 10 16 N/A
9:53 pm 21:53 Clear 64 17.8 37 2.8 37 37 E 9 15 29.78 1009 10 16 N/A
10:53 pm 22:53 Clear 62 16.7 36 2.2 38 38 E 8 13 29.76 1008 10 16 N/A
11:53 pm 23:53 Clear 63 17.2 36 2.2 37 37 E 8 13 29.75 1007 10 16 N/A

Powered by AerisWeather